Location: Emblem
(62.4273°N, 6.4710°E)
Time: 06:44:37
(UTC+02:00)

Transit 2A - Pass Details

Date: 03 March 2024
Orbit: 596 x 956 km, 66.7° (Epoch: 24 April)

Event Time Altitude Azimuth Distance (km) Brightness Sun altitude
Rises 21:53:23 0° 264° (W) 2,853 9.6 -25.7°
Reaches altitude 10° 21:55:37 10° 269° (W) 1,967 8.7 -25.9°
Maximum altitude 21:59:56 54° 347° (NNW) 771 6.2 -26.3°
Enters shadow 22:00:27 51° 14° (NNE) 805 6.2 -26.3°
